Location: Newark
(45.8667°N, 9.7333°E)
Time: 15:23:01
(UTC+00:00)

Transit 4A - Pass Details

Date: 25 January 2020
Orbit: 872 x 973 km, 66.8° (Epoch: 26 February)

Event Time Altitude Azimuth Distance (km) Brightness Sun altitude
Rises 06:03:04 0° 210° (SSW) 3,548 10.8 -8.6°
Reaches altitude 10° 06:05:36 10° 211° (SSW) 2,594 10.1 -8.2°
Maximum altitude 06:11:37 90° 116° (ESE) 902 7.9 -7.2°
Drops below altitude 10° 06:17:33 10° 33° (NNE) 2,550 10.4 -6.2°
Sets 06:20:01 0° 34° (NNE) 3,484 11.1 -5.8°
